Location: ????????
(60.4333°N, 46.4710°E)
Time: 19:53:25
(UTC+00:00)

Cosmos 1818 - Pass Details

Date: 25 November 2020
Orbit: 774 x 800 km, 65.0° (Epoch: 17 January)

Event Time Altitude Azimuth Distance (km) Brightness Sun altitude
Rises 12:55:03 0° 304° (NW) 3,311 7.1 -6.0°
Reaches altitude 10° 12:57:30 10° 302° (WNW) 2,381 6.4 -6.2°
Maximum altitude 13:02:56 66° 221° (SW) 872 4.1 -6.8°
Drops below altitude 10° 13:08:21 10° 140° (SE) 2,375 6.0 -7.4°
Sets 13:10:47 0° 138° (SE) 3,302 6.7 -7.6°
